Find KUIPER-00412

NORAD ID: 68927 Int'l Des: 2026-098J Owner: KUIP Country: US Constellation: amazon-leo operational
LEOCIRCULAR

实时位置

正在加载3D地球...

关于 KUIPER-00412

正在加载描述...

即将过境

Passes for default location (London). Set your location on the main map for personalized predictions.

高度历史

Loading altitude history...

两行轨道根数

1 68927U 26098J 26125.83336806 .00058449 00000-0 16414-2 0 9998
2 68927 51.8781 271.7297 0002647 65.6461 257.2510 15.35974634 1859
Epoch: May 5, 2026 • Age: 4 hours

当前状态

高度 477.5 km
速度 7.63 km/s
星下点 -51.92°S, 54.83°W
发射日期 Apr 30, 2026
运行时间 6 days
类型 internet

技术详情

分类 Payload
质量 490.00 kg
干质量 490.00 kg
总质量 490.00 kg
长度 1.80 m
直径 0.70 m
跨度 5.00 m
形状 Box + 2 pan
制造商 KUIP
平台类型 Kuiper
阶段状态 In Orbit
所有者/国家 KUIP/US

Most Searched